Regional Weather Roundup
Issued by NWS

Home | Current Version | Previous Version | Text Only | Print | Product List | Glossary On
Versions: 1 2 3 4 5 6 7 8 9 10 11 12 13 14 15 16 17 18 19 20 21 22 23 24 25 26 27 28 29 30 31 32 33 34 35 36 37 38 39 40 41 42 43 44 45 46 47 48 49 50
000
ASUS43 KLSX 160307
RWRMO

WEATHER SUMMARY FOR MISSOURI
NATIONAL WEATHER SERVICE SPRINGFIELD MO
900 PM CST FRI DEC 15 2017

NOTE: "FAIR" INDICATES FEW OR NO CLOUDS BELOW 12,000 FEET WITH NO
       SIGNIFICANT WEATHER AND/OR OBSTRUCTIONS TO VISIBILITY.
       CURRENT SKY AND/OR WEATHER CONDITIONS ARE NOT AVAILABLE FOR
       CHILLICOTHE AND FARMINGTON.

MOZ001>031-035>038-043-044-053-054-160400-
...NORTHERN AND WESTERN MISSOURI...

CITY           SKY/WX    TMP DP  RH WIND       PRES   REMARKS
KANSAS CTY INT CLEAR     41  25  53 SW15      29.93S
KANSAS C DTWN  CLEAR     44  25  47 SW17      29.95S
LEE`S SUMMIT   CLEAR     40  24  53 SW14      29.96R
ST JOSEPH      CLEAR     40  27  59 SW15      29.90F
CHILLICOTHE      N/A     37  22  54 S9        29.93F
KIRKSVILLE     CLEAR     37  26  64 SW13      29.91F WCI  29

$$
MOZ066>068-077>081-088>096-101>105-160400-
...SOUTHWEST MISSOURI...

CITY           SKY/WX    TMP DP  RH WIND       PRES   REMARKS
SPRINGFIELD    CLEAR     32  23  69 S7        30.08R WCI  26
JOPLIN         CLEAR     36  27  69 S9        30.09S WCI  29
BRANSON        CLEAR     37  25  60 CALM      30.11R

$$
MOZ032>034-039>042-045>050-055>058-069>072-160400-
...CENTRAL MISSOURI...

CITY           SKY/WX    TMP DP  RH WIND       PRES   REMARKS
COLUMBIA       CLEAR     35  26  69 S10       30.02S WCI  27
JEFFERSON CITY CLEAR     36  25  64 SE3       30.04F
ROLLA          CLEAR     31  25  78 SW9       30.05F WCI  23
SEDALIA        CLEAR     39  26  59 SW13      30.01S
WHITEMAN AFB   CLEAR     39  23  53 SW15      29.95S
WARRENSBURG    CLEAR     37  23  56 S9        29.99R
OSAGE BEACH    CLEAR     34  25  69 S6        30.06F WCI  29

$$
MOZ051-052-059>065-160400-
...EAST CENTRAL MISSOURI...

CITY           SKY/WX    TMP DP  RH WIND       PRES   REMARKS
ST LOUIS INTL  CLEAR     35  23  61 SW7       30.05F WCI  29
SPIRIT OF STL  CLEAR     27  21  78 NW3       30.05F
ST CHARLES     CLEAR     31  20  63 S8        30.05F WCI  23

$$
MOZ072>076-082>087-097>100-106>115-160400-
...SOUTH CENTRAL AND SOUTHEAST MISSOURI...

CITY           SKY/WX    TMP DP  RH WIND       PRES   REMARKS
CAPE GIRARDEAU CLEAR     36  27  69 SW5       30.12S
FARMINGTON     CLEAR     29  24  82 CALM      30.09R
POPLAR BLUFF   PTCLDY    34  29  82 S6        30.13S WCI  29
WEST PLAINS    CLEAR     35  24  64 W3        30.10S

$$



USA.gov is the U.S. government's official web portal to all federal, state and local government web resources and services.